Weather in Irkhidey

Russia / Irkutsk Oblast     53°26′00″N   103°48′05″E
temp.,
°C
wind,
m/s
gust,
m/s
humid.,
%
clouds,
%
prec.,
mm/h
press.,
hPa
HPBL,
m
18 may, tue
tue1823:00+5wnw3992100 0.1 1010318
02:00+4wnw2695100 0.4 1011172
05:00+3wnw1196100 0.1 101115
08:00+6w247995 0.1 1011400
11:00+10wnw465485 0.0 10101581
14:00+10w5567100 0.2 10081155
17:00+11w3456100 0.0 10041122
20:00+10se2266100 0.0 100021
19 may, wed
wed1923:00+7ne3589100 1.3 997172
02:00+6nne3892100 6.3 999448
05:00+6nw399194 0.3 1004846
08:00+6nw578213 0.3 1007557
11:00+9nw455177 0.0 10071369
14:00+11wnw333821 0.0 10051459
17:00+12n2136100 0.0 10031203
20:00+10ne2245100 0.0 100033
20 may, thu
thu2023:00+7nne5975100 0.9 1001291
02:00+4ene61287100 3.7 1001507
05:00+5ne3885100 0.3 1002469
08:00+3nne2797100 0.9 1005433
11:00+7e3575100 0.0 1005898
14:00+10ese3465100 0.1 10041219
17:00+12ese3555100 0.1 10011377
20:00+8se3881100 0.6 1003605
21 may, fri
fri2123:00+6sse2494100 1.3 1003301
02:00+6ese1392100 1.6 1001185
05:00+5nne3493100 2.3 1001660
08:00+4ene4895100 4.0 1001423
11:00+4ene3796100 3.1 1002604
14:00+4nnw1397100 5.7 1003529
17:00+3nnw2398100 5.7 1005384
20:00+2nw35100100 8.3 1007267
22 may, sat
sat2223:00+2nw3899100 1.3 1008401
02:00+2nw51297100 2.0 1009762
05:00+3nw51292100 0.2 1009491
08:00+5nw71382100 0.2 1010756
11:00+9nw91566100 0.1 10111871
14:00+11nw91447100 0.2 10102374
17:00+11nw8125659 0.4 10101811
20:00+7nw71375100 1.1 1012869